Hurghada, Egypt

4:12 PM EET on January 17, 2018 (GMT +0200)
Hurghada

Weather History for HEGN - January, 2012

Change the Weather History Date:

Thursday, January 12, 2012

  Actual Average Record
Temperature  
Mean Temperature 56 °F -  
Max Temperature 66 °F 69 °F 78 °F (2003)
Min Temperature 46 °F 52 °F 46 °F (2012)
Degree Days  
Heating Degree Days 9    
Growing Degree Days 6 (Base 50)    
Moisture  
Dew Point 31 °F    
Average Humidity 38    
Maximum Humidity 53    
Minimum Humidity 13    
Precipitation  
Precipitation 0.00 in - - ()
Sea Level Pressure  
Sea Level Pressure 30.13 in    
Wind  
Wind Speed 13 mph ()    
Max Wind Speed 23 mph    
Max Gust Speed -    
Visibility 6.1 miles    
Events      
Averages and records for this station are not official NWS values.
T = Trace of Precipitation, MM = Missing Value Source: Averaged Metar Reports

Daily Weather History Graph

Daily Weather History Graph

Search for Another Location

Airport or City:

Trip Planner

Search our weather history database for the weather conditions in past years. The results will help you decide how hot, cold, wet, or windy it might be!

Date:

Astronomy

Jan. 12, 2012 Rise Set
Actual Time 6:36 AM EET 5:10 PM EET
Civil Twilight 6:11 AM EET 5:35 PM EET
Nautical Twilight 5:42 AM EET 6:04 PM EET
Astronomical Twilight 5:14 AM EET 6:32 PM EET
Moon 8:29 PM EET (1/12) 8:29 AM EET (1/12)
Length of Visible Light 11h 24m
Length of Day
10h 34m
Waning Gibbous, 89% of the Moon is Illuminated
Jan 12
Waning Gibbous
Jan 16
Last Quarter
Jan 23
New
Jan 31
First Quarter
Feb 7
Full

Hourly Weather History & Observations

Time (EET) Temp. Windchill Dew Point Humidity Pressure Visibility Wind Dir Wind Speed Gust Speed Precip Events Conditions
12:00 AM 51.8 °F - 30.2 °F 44% 30.12 in - WNW 13.8 mph - N/A   Clear
1:00 AM 51.8 °F - 30.2 °F 44% 30.12 in - WNW 11.5 mph - N/A   Clear
2:00 AM 49 °F - 28 °F 32% 30.14 in 6 mi WNW 11.5 mph - -  
2:00 AM 50.0 °F - 28.4 °F 43% 30.12 in - WNW 11.5 mph - N/A   Clear
3:00 AM 50.0 °F - 28.4 °F 43% 30.12 in - WNW 11.5 mph - N/A   Clear
4:00 AM 48.2 °F - 28.4 °F 46% 30.12 in - WNW 12.7 mph - N/A   Clear
5:00 AM 48.2 °F - 30.2 °F 50% 30.12 in - WNW 17.3 mph - N/A   Clear
6:00 AM 46.4 °F 40.7 °F 30.2 °F 53% 30.15 in - WNW 12.7 mph - N/A   Clear
7:00 AM 46.4 °F 40.4 °F 28.4 °F 50% 30.15 in 6.2 mi WNW 13.8 mph - N/A   Partly Cloudy
8:00 AM 50.0 °F - 28.4 °F 43% 30.15 in 6.2 mi WNW 16.1 mph - N/A   Partly Cloudy
9:00 AM 57.2 °F - 30.2 °F 36% 30.18 in - WNW 17.3 mph - N/A   Clear
10:00 AM 59.0 °F - 28.4 °F 31% 30.18 in 6.2 mi WNW 17.3 mph - N/A   Partly Cloudy
11:00 AM 60.8 °F - 30.2 °F 31% 30.15 in 6.2 mi NNW 23.0 mph - N/A   Partly Cloudy
12:00 PM 62.6 °F - 28.4 °F 27% 30.12 in - NNW 16.1 mph - N/A   Clear
1:00 PM 64.4 °F - 32.0 °F 30% 30.09 in - North 17.3 mph - N/A   Clear
2:00 PM 66 °F - 28 °F 13% 30.09 in 6 mi NW 19.6 mph - -  
2:00 PM 66.2 °F - 28.4 °F 24% 30.09 in - NW 19.6 mph - N/A   Clear
3:00 PM 64.4 °F - 35.6 °F 34% 30.09 in - North 18.4 mph - N/A   Clear
4:00 PM 64.4 °F - 39.2 °F 40% 30.09 in - NNW 19.6 mph - N/A   Clear
6:00 PM 60.8 °F - 37.4 °F 42% 30.09 in - NW 11.5 mph - N/A   Clear
7:00 PM 59.0 °F - 35.6 °F 42% 30.12 in - NW 12.7 mph - N/A   Clear
8:00 PM 58 °F - 37 °F 33% 30.14 in 6 mi North 15.0 mph - -  
8:00 PM 57.2 °F - 37.4 °F 48% 30.12 in - North 15.0 mph - N/A   Clear
9:00 PM 55.4 °F - 30.2 °F 38% 30.15 in - NNW 12.7 mph - N/A   Clear
10:00 PM 55.4 °F - 30.2 °F 38% 30.15 in - NNW 10.4 mph - N/A   Clear
11:00 PM 53.6 °F - 30.2 °F 41% 30.15 in - NW 18.4 mph - N/A   Clear